Lynchburg, VA

8:00 AM EDT on September 30, 2016 (GMT -0400)
Lynchburg Regional-Glenn

Weather History for KLYH - May, 2013

Change the Weather History Date:

Saturday, May 25, 2013

  Actual Average Record
Temperature  
Mean Temperature 54 °F 66 °F  
Max Temperature 72 °F 77 °F 93 °F (1936)
Min Temperature 36 °F 54 °F 36 °F (2013)
Degree Days  
Heating Degree Days 11 3  
Month to date heating degree days 138 110  
Since 1 July heating degree days 4280 4433  
Cooling Degree Days 0 3  
Month to date cooling degree days 62 43  
Year to date cooling degree days 102 61  
Growing Degree Days 4 (Base 50)    
Moisture  
Dew Point 33 °F    
Average Humidity 56    
Maximum Humidity 92    
Minimum Humidity 19    
Precipitation  
Precipitation 0.00 in 0.13 in 0.77 in (1909)
Month to date precipitation 5.25 2.93  
Year to date precipitation 19.57 15.89  
Snow  
Snow 0.00 in - - ()
Month to date snowfall 0.0  
Since 1 July snowfall 13.0  
Snow Depth 0.00 in    
Sea Level Pressure  
Sea Level Pressure 30.21 in    
Wind  
Wind Speed 5 mph (WNW)    
Max Wind Speed 13 mph    
Max Gust Speed 21 mph    
Visibility 10 miles    
Events      
T = Trace of Precipitation, MM = Missing Value Source: NWS Daily Summary

Daily Weather History Graph

Daily Weather History Graph

Search for Another Location

Airport or City:

Trip Planner

Search our weather history database for the weather conditions in past years. The results will help you decide how hot, cold, wet, or windy it might be!

Date:

Astronomy

May. 25, 2013 Rise Set
Actual Time 6:00 AM EDT 8:27 PM EDT
Civil Twilight 5:30 AM EDT 8:57 PM EDT
Nautical Twilight 4:53 AM EDT 9:34 PM EDT
Astronomical Twilight 4:13 AM EDT 10:15 PM EDT
Moon 9:13 PM EDT (5/25) 6:25 AM EDT (5/25)
Length of Visible Light 15h 26m
Length of Day
14h 26m
Full, 100% of the Moon is Illuminated
May 25
Full
May 31
Last Quarter
Jun 8
New
Jun 16
First Quarter
Jun 23
Full

Hourly Weather History & Observations

Time (EDT) Temp. Windchill Dew Point Humidity Pressure Visibility Wind Dir Wind Speed Gust Speed Precip Events Conditions
12:54 AM 42.1 °F - 37.0 °F 82% 30.19 in 10.0 mi Calm Calm - N/A   Clear
1:54 AM 46.0 °F - 35.1 °F 66% 30.19 in 10.0 mi Calm Calm - N/A   Clear
2:54 AM 43.0 °F 40.3 °F 36.0 °F 76% 30.19 in 10.0 mi NNW 4.6 mph - N/A   Clear
3:54 AM 41.0 °F 39.0 °F 36.0 °F 82% 30.21 in 10.0 mi NNW 3.5 mph - N/A   Clear
4:54 AM 39.0 °F - 36.0 °F 89% 30.24 in 10.0 mi Calm Calm - N/A   Clear
5:54 AM 37.0 °F - 35.1 °F 93% 30.25 in 10.0 mi Calm Calm - N/A   Clear
6:54 AM 42.1 °F - 37.9 °F 85% 30.26 in 10.0 mi Calm Calm - N/A   Clear
7:54 AM 48.9 °F - 37.0 °F 64% 30.25 in 10.0 mi NE 3.5 mph - N/A   Clear
8:54 AM 54.0 °F - 30.0 °F 40% 30.25 in 10.0 mi Variable 5.8 mph - N/A   Clear
9:54 AM 57.0 °F - 30.0 °F 36% 30.24 in 10.0 mi WNW 9.2 mph - N/A   Clear
10:54 AM 57.0 °F - 30.0 °F 36% 30.26 in 10.0 mi SW 6.9 mph - N/A   Clear
11:54 AM 61.0 °F - 30.9 °F 32% 30.25 in 10.0 mi WNW 8.1 mph 16.1 mph N/A   Clear
12:54 PM 66.0 °F - 33.1 °F 29% 30.21 in 10.0 mi WSW 9.2 mph 17.3 mph N/A   Clear
1:54 PM 64.9 °F - 30.0 °F 27% 30.19 in 10.0 mi Variable 6.9 mph - N/A   Clear
2:54 PM 70.0 °F - 30.0 °F 23% 30.17 in 10.0 mi West 8.1 mph 16.1 mph N/A   Clear
3:54 PM 71.1 °F - 27.0 °F 19% 30.16 in 10.0 mi WNW 8.1 mph 19.6 mph N/A   Clear
4:54 PM 71.1 °F - 28.0 °F 20% 30.14 in 10.0 mi WNW 10.4 mph 20.7 mph N/A   Clear
5:54 PM 70.0 °F - 28.9 °F 22% 30.15 in 10.0 mi Variable 4.6 mph - N/A   Clear
6:54 PM 68.0 °F - 30.0 °F 24% 30.16 in 10.0 mi WNW 5.8 mph - N/A   Clear
7:54 PM 64.0 °F - 32.0 °F 30% 30.17 in 10.0 mi WNW 4.6 mph - N/A   Clear
8:54 PM 55.0 °F - 37.0 °F 51% 30.18 in 10.0 mi West 3.5 mph - N/A   Clear
9:54 PM 55.0 °F - 39.0 °F 55% 30.20 in 10.0 mi WNW 3.5 mph - N/A   Clear
10:54 PM 55.0 °F - 37.9 °F 53% 30.22 in 10.0 mi Calm Calm - N/A   Clear
11:54 PM 50.0 °F - 37.9 °F 63% 30.22 in 10.0 mi NW 5.8 mph - N/A   Clear